Location: Newark
(47.5783°N, 6.7622°E)
Time: 09:50:31
(UTC+00:00)

Vanguard 1 - Visible Passes

Search period start: 17 February 2020 00:00
Search period end: 27 February 2020 00:00
Orbit: 650 x 3833 km, 34.2° (Epoch: 16 February)

Date Brightness Start Highest point End Pass type
(mag) Time Alt. Az. Time Alt. Az. Time Alt. Az.
19 Feb 14.6 05:06:02 10° SSE 05:12:51 12° SE 05:19:00 10° ESE visible
20 Feb 14.5 05:21:23 10° S 05:33:34 18° SE 05:43:46 10° ESE visible
21 Feb 14.4 05:39:03 10° S 05:54:20 23° SE 06:06:29 10° E visible
22 Feb 14.2 05:57:46 10° SSW 06:15:08 29° SSE 06:28:25 10° E visible
23 Feb 14.4 04:03:28 10° SSE 04:13:15 14° SE 04:22:15 10° ESE visible
24 Feb 14.3 04:19:48 10° S 04:33:48 20° SE 04:46:14 10° E visible
25 Feb 14.2 04:37:47 10° S 04:54:25 26° SE 05:08:47 10° E visible
26 Feb 14.4 02:52:34 10° SE 02:53:00 10° SE 02:53:26 10° SE visible
26 Feb 14.0 04:56:40 10° SSW 05:15:07 31° SE 05:30:40 10° E visible
